Change the Weather History Date:

Thursday, April 4, 2013

  Actual Average Record
Temperature  
Mean Temperature 39 °F -  
Max Temperature 46 °F 51 °F 71 °F (1977)
Min Temperature 32 °F 35 °F 16 °F (1954)
Degree Days  
Heating Degree Days 26    
Moisture  
Dew Point 21 °F    
Average Humidity 49    
Maximum Humidity 76    
Minimum Humidity 32    
Precipitation  
Precipitation 0.00 in - - ()
Sea Level Pressure  
Sea Level Pressure 30.19 in    
Wind  
Wind Speed 12 mph (WSW)    
Max Wind Speed 23 mph    
Max Gust Speed 30 mph    
Visibility 10 miles    
Events      
Averages and records for this station are not official NWS values.
T = Trace of Precipitation, MM = Missing Value Source: NWS Daily Summary

Daily Weather History Graph

Daily Weather History Graph

Search for Another Location

Airport or City:

Trip Planner

Search our weather history database for the weather conditions in past years. The results will help you decide how hot, cold, wet, or windy it might be!

Date:

Astronomy

Apr. 04, 2013 Rise Set
Actual Time 6:18 AM EDT 7:10 PM EDT
Civil Twilight 5:50 AM EDT 7:38 PM EDT
Nautical Twilight 5:17 AM EDT 8:11 PM EDT
Astronomical Twilight 4:42 AM EDT 8:46 PM EDT
Moon 2:47 AM EDT (4/4) 1:20 PM EDT (4/4)
Length of Visible Light 13h 47m
Length of Day
12h 51m
Waning Crescent, 34% of the Moon is Illuminated
Apr 4
Waning Crescent
Apr 10
New
Apr 18
First Quarter
Apr 25
Full
May 2
Last Quarter

Hourly Weather History & Observations

Time (EDT) Temp. Windchill Dew Point Humidity Pressure Visibility Wind Dir Wind Speed Gust Speed Precip Events Conditions
12:56 AM 35.1 °F 27.4 °F 14.0 °F 42% 30.16 in 10.0 mi WNW 10.4 mph 18.4 mph N/A   Clear
1:56 AM 34.0 °F 26.0 °F 14.0 °F 44% 30.16 in 10.0 mi WNW 10.4 mph - N/A   Clear
2:56 AM 34.0 °F 25.0 °F 15.1 °F 46% 30.16 in 10.0 mi NW 12.7 mph 18.4 mph N/A   Clear
3:56 AM 34.0 °F 26.0 °F 17.1 °F 50% 30.16 in 10.0 mi NNW 10.4 mph 18.4 mph N/A   Clear
4:56 AM 34.0 °F 24.2 °F 17.1 °F 50% 30.16 in 10.0 mi NNW 15.0 mph 21.9 mph N/A   Clear
5:56 AM 34.0 °F 27.2 °F 19.0 °F 54% 30.22 in 10.0 mi NNW 8.1 mph - N/A   Clear
6:56 AM 32.0 °F 24.8 °F 16.0 °F 52% 30.26 in 10.0 mi West 8.1 mph - N/A   Clear
7:56 AM 35.1 °F 26.9 °F 17.1 °F 48% 30.28 in 10.0 mi West 11.5 mph - N/A   Clear
8:56 AM 39.0 °F 31.0 °F 15.1 °F 38% 30.28 in 10.0 mi WNW 13.8 mph 19.6 mph N/A   Clear
9:56 AM 41.0 °F 34.3 °F 14.0 °F 33% 30.29 in 10.0 mi NW 11.5 mph 17.3 mph N/A   Clear
10:56 AM 44.1 °F 42.5 °F 16.0 °F 32% 30.27 in 10.0 mi SW 3.5 mph - N/A   Clear
11:56 AM 45.0 °F 38.2 °F 21.9 °F 40% 30.25 in 10.0 mi SSW 15.0 mph 19.6 mph N/A   Clear
12:56 PM 44.1 °F 36.5 °F 23.0 °F 43% 30.23 in 10.0 mi SW 17.3 mph 23.0 mph N/A   Clear
1:56 PM 46.0 °F 37.8 °F 21.9 °F 39% 30.22 in 10.0 mi SW 23.0 mph 29.9 mph N/A   Clear
2:56 PM 46.0 °F 39.6 °F 19.9 °F 35% 30.20 in 10.0 mi SW 15.0 mph 25.3 mph N/A   Clear
3:56 PM 46.9 °F - 21.0 °F 36% 30.17 in 10.0 mi SW 16.1 mph - N/A   Clear
4:56 PM 45.0 °F 37.6 °F 25.0 °F 46% 30.15 in 10.0 mi SW 17.3 mph 24.2 mph N/A   Clear
5:56 PM 44.1 °F 37.4 °F 27.0 °F 51% 30.15 in 10.0 mi SSW 13.8 mph 20.7 mph N/A   Clear
6:56 PM 42.1 °F 36.1 °F 28.9 °F 60% 30.14 in 10.0 mi SW 10.4 mph - N/A   Clear
7:56 PM 41.0 °F 32.5 °F 25.0 °F 53% 30.14 in 10.0 mi SW 17.3 mph 24.2 mph N/A   Clear
8:56 PM 39.9 °F 31.1 °F 28.9 °F 65% 30.16 in 10.0 mi SW 17.3 mph 27.6 mph N/A   Clear
9:56 PM 39.9 °F 32.1 °F 30.9 °F 70% 30.15 in 10.0 mi SW 13.8 mph 23.0 mph N/A   Clear
10:56 PM 41.0 °F 32.2 °F 33.1 °F 73% 30.12 in 10.0 mi SW 18.4 mph 29.9 mph N/A   Clear
11:56 PM 41.0 °F 33.1 °F 34.0 °F 76% 30.09 in 10.0 mi SW 15.0 mph - N/A   Clear